Location: Brno
(49.2000°N, 16.6330°E)
Time: 23:02:47
(UTC+02:00)

CARTOSAT-1 - Visible Passes

Search period start: 28 June 2017 00:00
Search period end: 08 July 2017 00:00
Orbit: 616 x 620 km, 97.9° (Epoch: 27 June)

Date Brightness Start Highest point End Pass type
(mag) Time Alt. Az. Time Alt. Az. Time Alt. Az.
28 Jun 4.5 21:57:54 10° SE 22:01:49 35° ENE 22:05:46 10° N visible
28 Jun 5.1 23:34:51 13° SSW 23:37:58 27° W 23:41:40 10° NW visible
29 Jun 4.0 22:14:41 12° SE 22:18:30 50° ENE 22:22:42 10° N visible
29 Jun 5.6 23:51:49 10° SW 23:54:53 19° W 23:58:01 10° NW visible
30 Jun 3.6 22:31:38 15° SSE 22:35:13 74° ENE 22:39:34 10° N visible
01 Jul 6.0 00:09:41 10° WSW 00:11:50 13° W 00:13:59 10° WNW visible
01 Jul 3.6 22:48:36 16° S 22:52:00 77° WSW 22:56:20 10° NNW visible
02 Jul 4.1 23:05:34 16° S 23:08:48 52° W 23:13:03 10° NNW visible
03 Jul 4.9 21:46:01 10° ESE 21:49:40 28° ENE 21:53:21 10° N visible
03 Jul 4.7 23:22:32 15° SSW 23:25:39 35° W 23:29:39 10° NNW visible
04 Jul 4.4 22:02:23 10° SE 22:06:19 39° ENE 22:10:21 10° N visible
04 Jul 5.3 23:39:31 13° SW 23:42:31 25° W 23:46:07 10° NW visible
05 Jul 3.9 22:19:21 13° SSE 22:23:01 56° ENE 22:27:16 10° N visible
05 Jul 5.7 23:56:32 10° SW 23:59:27 18° W 00:02:23 10° NW visible
06 Jul 3.5 22:36:19 16° SSE 22:39:45 81° ENE 22:44:06 10° NNW visible
07 Jul 6.0 00:14:42 10° WSW 00:16:25 12° W 00:18:10 10° WNW visible
07 Jul 3.7 22:53:18 17° S 22:56:31 69° WSW 23:00:52 10° NNW visible
